Showing default

GALAXY 14, 28790

Orbit data source: Space-Track

GALAXY 14, 28790 is a payload satellite owned by Panamsat (US) in GEO that was launched on Sat, 13 Aug 2005 UTC via a SOYUZ-FG launch vehicle from the Tyuratam Missile And Space Complex (TTMTR). Payload-class satellites include a variety of spacecraft equipped with specific instruments for various scientific and technological missions. These include communications satellites like Starlink; space stations such as the ISS; scientific satellites like the Hubble; Earth observation satellites from companies like Planet Labs, Umbra, and HawkEye 360; GPS; miniature CubeSats for education and research; and military/defense satellites.

Loading next visibility...
Identifier
28790, 2005-030A
Orbit
GEO
Country
Flag of USUS
Related business
Manufacturer
OSC
Mission
Non-operational Commercial Communications
Bus & Motor
OSC STAR 2, IHI LAE
Mass
2,087 kg wet, ~850 kg dry
Launch date (UTC)
2005-08-13 (20 years ago)
Launch vehicle
SOYUZ-FG
Launch site
Tyuratam Missile And Space Complex (TTMTR)
Object type
Payload
Rocket body
Debris
Shape & HBR
Box + 2 Pan, 6.3 m
Radar Cross Section
13.542 m², Large (>1 m²)

Expand to show TLE details & history
Last TLE update: 23 hours ago

TLE from 23 hours ago
0 GALAXY 14
1 28790U 05030A   25315.30207340  .00000051  00000-0  00000-0 0  9995
2 28790   4.4651  77.7088 0000678 245.9262  83.5005  0.98911932 74066
Epoch: 2025-11-11T07:14Z
TLE epoch observation values (Epoch: 2025-11-11T07:14:59.141Z)
Latitude
-2.2557°
Longitude
-112.23543°
Altitude
36,171.672 km
Speed
3.061 km/s
True Right ascension
03h 08m 48s
True Declination
-2° 15' 12"
Sunlit
Object was in daylight at epoch
Visualization orbit readout
Latitude
Unknown
Longitude
Unknown
Altitude
Unknown
Speed
Unknown
Apparent Right ascension
Unknown
Apparent Declination
Unknown
Sunlit
N/A
Visualization observer readout
Local Sidereal Time
02:29:01
Azimuth
Unknown
Elevation
Unknown
Doppler factor
Unknown
Orbital elements
Apogee altitude
36,176.109 km
Perigee altitude
36,170.339 km
Semi-major axis
42,551.361 km
Eccentricity
0.00007
Inclination
4.4651°
RAAN
77.7088°
Arg. of periapsis
245.9262°
True anomaly
83.50822°
Mean anomaly
83.5005°
Eccentric anomaly
83.50436°
Mean motion
0.24727 °/min
Orbital period
1,455.89 mins
BSTAR
0
Loading maneuver chart data...
Computing Atmospheric mass density...
Loading historical data...
Loading historical data...
Loading historical data...
Loading historical data...
Loading historical data...
Loading historical data...
Loading historical data...
Other satellites on launch #30 in the year 2005 (2005-08-13 UTC)

Documentation

Showing up to 5 results
|